Blue Ridge Airport

Jump to: basic info | weather | frequencies | runways | comments

Related pages: nearby airports | nearby navaids | notams | map

Basic information (top)

Codes: KMTV MTV
Location: lon 36.630699, lat -80.018303, elev 941 ft / 287 m msl
Status: small_airport

Weather (top)

Current conditions (rec'd 2014/10/02 09:55Z):

KMTV 020955Z AUTO 00000KT 1/4SM FG OVC001 15/15 A3012 RMK AO2 T01470147

Airport forecast for Smith Reynolds Airport 31nm (58km) SSW (rec'd 2014/10/02 06:36Z):

TAF KINT 020532Z 0206/0306 00000KT 6SM BR SCT070 
     FM020900 00000KT 2SM BR SCT003 
      TEMPO 0210/0213 1/2SM FG VV002 
     FM021300 VRB02KT 4SM BR BKN012 
     FM021400 VRB03KT P6SM FEW015 BKN025 BKN070 
     FM021600 VRB05KT P6SM BKN035

Frequencies (top)

Verify before use: may be inaccurate or out of date.

A/D: 124.35 MHz (GREENSBORO APP/DEP)
AWOS: 118.45 MHz (AWOS 3)
CLD: 124.85 MHz (CLNC DEL)
UNIC: 122.7 MHz (CTAF/UNICOM)

Runways (top)

12/30: 5,002 x 100 ft (1,525 x 30 m) — paved — lighted

Latest comments (top)

Runway Cafe: Great little place to eat right next to ... [read]

More... (top)

See also NOTAMs and nearby airports and navaids, or visit the Blue Ridge Airport page at the main OurAirports website..